Погода в Оймяконе

Погода в Оймяконе : погода сейчас, прогноз погоды и архив. Всё, что Вы хотите узнать о погоде в Оймяконе!

Хотите узнать прогноз погоды в Оймяконе? Тогда Вам сюда: Погода в Оймяконе

Поиск расширенной информации на нашем сайте:

Другие новости

Новости СМИ2

Главная страница сайта

Новости сайта

03.07.2017

Напоминаем, что на нашем специализированном сайте Метеоцентр.Азия вы можете получить высокодетализированные автоматические прогнозы погоды по пунктам России, СНГ и мира в авиационном формате (включающие направление и скорость ветра, видимость, явления погоды, количество и форму облачности, нижнюю и верхнюю границу облачности).


Погода в Оймяконе - сегодня

Время (UTC), дата Ветер
(°,м/с) 
Видим.   Явления Облачность Т
(°С)
Тd
(°С)
f(%) Тe
(°С)
Pmin
(гПа)
dP
(гПа)
Po
(мм)
O2
(г/м3)
Тmin Tmax R s Состояние
почвы
21 18.09.17 200 (Ю) 20000 м    3/3 1000 м 
[Sc]
-3.8 -5.6 87 -5  1019.3  0.7  696  285  -3.9        замёрзшая 
00 19.09.17 050 (СВ) 20000 м    1/1 1000 м 
[Cu Sc]
+5 -1.6 62 +6  1015.9  -0.2  696  276           
03 19.09.17 150 (ЮВ) 20000 м    3/1 1000 м верхняя 
[Sc diur, vesp|Ci fib]
+8.3 -4.4 40 +8  1013.3  -1.4  695  272           
06 19.09.17 080 (В) 20000 м    4/1 1000 м верхняя 
[Sc diur, vesp|Ci fib]
+9.1 -4.1 39 +9  1011.7  -1.4  694  271           
09 19.09.17 040 (СВ) 20000 м    9/0 средняя, верхняя 
[Ac trans|Ci]
+3.6 -3.8 58 +3  1013  -0.3  694  276    +9.5       
12 19.09.17 290 (З) 20000 м    5/0 верхняя 
[Ci fib]
-3.6 -5.8 85 -5  1014.6  -0.7  693  284           
15 19.09.17 тихо ()   20000 м    4/0 верхняя 
[Ci fib]
-6.7 -8.3 88 -7  1015.6  -0.2  693  287           
18 19.09.17 тихо ()   20000 м    9/0 средняя, верхняя 
[Ac trans|Ci]
-2.9 -4.2 91 -3  1014  -0.2  693  283           
21 19.09.17 тихо ()   20000 м    10/0 средняя, верхняя 
[Ac trans|Cs]
-3.6 -5 90 -4  1013.9  -0.3  693  283  -6.8        замёрзшая 
00 20.09.17 тихо ()   20000 м  слаб. дождь  10/0 средняя, верхняя 
[Ac As|Cs]
+2.7 -0.9 77 +3  1011.6  -0.1  693  276           
03 20.09.17 110 (В) 20000 м  в посл. час дождь  10/1 1000 м средняя, верхняя 
[Cu med, cong|Ac As|Cs]
+8.5 +2.5 66 +10  1008.4  -1.2  692  270           
06 20.09.17 190 (Ю) 20000 м  {дождь}  10/3 1000 м средняя, верхняя 
[Cu Sc|Ac As|Cs]
+11.7 +1.9 51 +11  1005.8  -1.5  691  266           
09 20.09.17 170 (Ю) 20000 м  осадки на расстоянии  10/3 1000 м средняя, верхняя 
[Sc|Ac As|Cs]
+8.8 +2.3 64 +9  1007.7  0.9  691  269    +11.9  0.0     
12 20.09.17 160 (Ю) 20000 м    6/0 средняя, верхняя 
[Ac trans|Ci fib]
+6.6 +2.2 73 +6  1008.3  691  272           
15 20.09.17 060 (СВ) 20000 м    3/0 средняя, верхняя 
[Ac trans|Ci fib]
+1.3 +0.5 94 +1  1009.9  -0.2  691  277           
18 20.09.17 тихо ()   20000 м    3/0 средняя, верхняя 
[Ac trans|Ci fib]
-2.9 -3.6 95 -3  1011.1  -0.2  691  282           
21 20.09.17 тихо ()   20000 м  местами туман поземный  10/1 1000 м средняя, верхняя 
[Sc|Ac trans|Cs]
-1.3 -2.1 94 -1  1010.4  -0.1  691  280  -3.2        замёрзшая 
00 21.09.17 тихо ()   20000 м  слаб. дождь{снег}  10/3 1000 м средняя 
[Sc|Ac As]
+2.9 +1.9 93 +3  1008.2  -0.8  690  275           
03 21.09.17 190 (Ю) 20000 м  слаб. дождь  10/3 1000 м средняя, верхняя 
[Sc|As op|Cs]
+8.6 +4 73 +10  1005.4  -0.8  690  269           
06 21.09.17 030 (СВ) 20000 м  слаб. дождь  10/3 1000 м средняя 
[Sc|As op]
+9.8 +2.9 62 +9  1004.2  -0.8  689  268           
09 21.09.17 110 (В) 20000 м  слаб. дождь  10/1 1500 м средняя 
[Sc|As op]
+8.7 +3.4 69 +8  1004.8  0.1  689  269    +10.1  0.3     
12 21.09.17 тихо ()   20000 м  слаб. дождь  10/3 1000 м средняя 
[Sc|As op]
+6.2 +3.6 83 +6  1006  0.3  690  271           
15 21.09.17 070 (В) 20000 м  слаб. дождь  10/3 1000 м средняя 
[Sc|As op]
+4.6 +4.1 97 +5  1006.7  0.2  690  273           
18 21.09.17 080 (В) 20000 м  слаб. дождь  10/3 1000 м средняя 
[Sc|As op]
+3.8 +3.6 99 +5  1006.9  -0.1  690  273           
21 21.09.17 280 (З) 20000 м  слаб. дождь  10/6 200 м средняя 
[Frnb|As op]
+1.7 +0.9 94 1008.2  0.6  690  276  +0.2      влажная 
Время (UTC), дата Ветер
(°,м/с) 
Видим.   Явления Облачность Т
(°С)
Тd
(°С)
f(%) Тe
(°С)
Pmin
(гПа)
dP
(гПа)
Po
(мм)
O2
(г/м3)
Тmin Tmax R s Состояние
почвы

Для получения пояснительной информации подведите курсор к названию столбца.

ПОГОДА в Оймяконе - архив

Всё, что Вы хотите узнать о погоде в Оймяконе - удобно и подробно!

Выберите нужную дату (начиная с 1 января 2015* года) и нажмите кнопку "Найти".
Будут отображены архивные сводки погоды по пункту Оймякон, начиная с указанной даты.


Отображать данные в формате CSV (для использования в таблицах Excel)


Внимание! Наш архив погоды предназначен исключительно для личного некоммерческого использования в познавательных целях. Если Вам необходимы официальные справки о состоянии погоды (для производственных, юридических, коммерческих и т.п. целей), обращайтесь в органы Росгидромета.

*Примечание: данная дата относится к архиву по метеостанциям СССР (Россия, СНГ, Балтия).
Архив по метеостанциям Зарубежной Европы и Азии (кроме Китая) хранится 10 дней, по другим регионам земного шара (Китай, Африка, Америка, Австралия, Океания) - 1 день.

Оймякон - район местоположения метеостанции


Название, широта, долгота, высота метеостанции:
Оймякон 63.2°ш. 143.2°д. 741 м над ур. моря [Российская Федерация]

Дополнительная информация

В oтличие oт бoльшинства пoгoдных сайтoв мы публикуем пoдрoбную метеoинфoрмацию в детальнoм прoфессиoнальнoм фoрмате.

Характеристики температуры и влажнoсти вoздуха измеряются на высoте 2 м в тени вдали oт зданий и деревьев.
Скoрoсть ветра измеряется на высoте 10 м (на урoвне рoста челoвека скoрoсть ветра ниже в 1.5-2 раза). Если метеoстанция нахoдится в гoрoде или в лесу, тo скoрoсть ветра занижена на 2-4 м/с пo сравнению с oткрытым местoм. Скoрoсть ветра над акватoриями крупных рек и oзёр, а также на вершинах хoлмoв на 2-5 м/с выше, чем в oбычных услoвиях.
Атмoсфернoе давление в разных тoчках местнoсти мoжет значительнo oтличаться oт давления на метеoстанции, в зависимoсти oт услoвий рельефа (при пoдъёме на 10 м давление пoнижается примернo на 1 мм рт.ст.).